SR1WXW Weather Reports


time (UTC)temp
C
wind
direction
speed
KPH
gust
KPH
rain 1hr
cm
rain 24hr
cm
rain mn
cm
humidity
%
barometer
mb
20260507220753 5 0 0.0 0.0 0.00 0.00 0.00 87 1014.0
20260507220253 5 22 0.0 0.0 0.00 0.00 0.00 87 1014.0
20260507215753 5 315 0.0 0.0 0.00 0.00 0.00 87 1013.9
20260507215254 5 292 0.0 0.0 0.00 0.00 0.00 87 1014.0
20260507214754 5 315 0.0 0.0 0.00 0.00 0.00 86 1014.1
20260507214254 5 315 0.0 0.0 0.00 0.00 0.00 86 1014.0
20260507213754 5 315 0.0 0.0 0.00 0.00 0.00 86 1014.1
20260507213254 5 337 0.0 0.0 0.00 0.00 0.00 86 1014.1
20260507212754 5 315 0.0 0.0 0.00 0.00 0.00 85 1014.0
20260507212254 5 315 0.0 0.0 0.00 0.00 0.00 85 1013.9
20260507211754 5 337 0.0 0.0 0.00 0.00 0.00 85 1013.9
20260507211254 5 337 0.0 0.0 0.00 0.00 0.00 85 1013.9
20260507210754 6 337 0.0 0.0 0.00 0.00 0.00 85 1013.8
20260507210254 6 337 0.0 0.0 0.00 0.00 0.00 85 1013.8
20260507205754 6 337 0.0 0.0 0.00 0.00 0.00 84 1013.8
20260507205254 6 337 0.0 0.0 0.00 0.00 0.00 84 1013.7
20260507204754 6 22 0.0 0.0 0.00 0.00 0.00 84 1013.7
20260507204254 6 337 0.0 0.0 0.00 0.00 0.00 84 1013.6
20260507203754 6 315 0.0 0.0 0.00 0.00 0.00 84 1013.6
20260507203254 6 292 0.0 0.0 0.00 0.00 0.00 84 1013.6
20260507202754 6 292 0.0 0.0 0.00 0.00 0.00 84 1013.5
20260507202254 6 315 0.0 0.0 0.00 0.00 0.00 83 1013.5
20260507201754 6 315 0.0 0.0 0.00 0.00 0.00 83 1013.5
20260507201254 6 315 0.0 0.0 0.00 0.00 0.00 83 1013.4
20260507200754 6 315 0.0 0.0 0.00 0.00 0.00 83 1013.5
20260507200254 6 315 0.0 0.0 0.00 0.00 0.00 82 1013.3
20260507195754 6 315 0.0 0.0 0.00 0.00 0.00 82 1013.2
20260507195254 6 0 0.0 0.0 0.00 0.00 0.00 82 1013.2
20260507194754 6 292 0.0 0.0 0.00 0.00 0.00 82 1013.1
20260507194254 6 315 0.0 0.0 0.00 0.00 0.00 82 1013.1
20260507193754 6 315 0.0 0.0 0.00 0.00 0.00 81 1012.9
20260507193254 6 315 0.0 0.0 0.00 0.00 0.00 81 1012.8
20260507192754 6 0 0.0 0.0 0.00 0.00 0.00 81 1012.7
20260507192254 6 337 0.0 0.0 0.00 0.00 0.00 80 1012.6
20260507191754 7 337 0.0 0.0 0.00 0.00 0.00 80 1012.6
20260507191254 7 337 0.0 0.0 0.00 0.00 0.00 80 1012.6
20260507190754 7 315 0.0 0.0 0.00 0.00 0.00 79 1012.6
20260507190254 7 292 0.0 0.0 0.00 0.00 0.00 79 1012.7
20260507185754 7 337 0.0 0.0 0.00 0.00 0.00 79 1012.7
20260507185254 7 292 0.0 0.0 0.00 0.00 0.00 78 1012.6
20260507184754 7 315 0.0 0.0 0.00 0.00 0.00 78 1012.5
20260507184254 7 0 0.0 0.0 0.00 0.00 0.00 78 1012.4
20260507183754 7 337 0.0 0.0 0.00 0.00 0.00 78 1012.3
20260507183254 7 337 0.0 0.0 0.00 0.00 0.00 77 1012.2
20260507182754 7 337 0.0 0.0 0.00 0.00 0.00 77 1012.1
20260507182254 8 315 0.0 0.0 0.00 0.00 0.00 77 1012.1
20260507181754 8 315 0.0 0.0 0.00 0.00 0.00 77 1012.1
20260507181254 8 0 0.0 0.0 0.00 0.00 0.00 76 1012.1
20260507180754 8 315 0.0 0.0 0.00 0.00 0.00 76 1012.0
20260507180254 8 315 0.0 0.0 0.00 0.00 0.00 75 1012.1
20260507175754 8 315 0.0 0.0 0.00 0.00 0.00 75 1012.1
20260507175254 8 270 0.0 0.0 0.00 0.00 0.00 75 1012.0
20260507174754 8 292 0.0 0.0 0.00 0.00 0.00 74 1012.0
20260507174254 9 315 0.0 0.0 0.00 0.00 0.00 74 1011.9
20260507173754 9 0 0.0 0.0 0.00 0.00 0.00 73 1012.0
20260507173254 9 0 0.0 0.0 0.00 0.00 0.00 73 1011.9
20260507172754 9 0 0.0 0.0 0.00 0.00 0.00 73 1011.9
20260507172254 9 22 0.0 1.6 0.00 0.00 0.00 73 1011.9
20260507171754 9 22 0.0 3.2 0.00 0.00 0.00 74 1011.8
20260507171254 10 22 0.0 0.0 0.00 0.00 0.00 74 1011.8
20260507170754 10 337 0.0 0.0 0.00 0.00 0.00 73 1011.7
20260507170254 10 45 0.0 0.0 0.00 0.00 0.00 73 1011.6
20260507165754 10 337 0.0 0.0 0.00 0.00 0.00 73 1011.7
20260507165254 10 337 0.0 0.0 0.00 0.00 0.00 73 1011.7
20260507164754 10 45 1.6 4.8 0.00 0.00 0.00 73 1011.7
20260507164254 10 315 0.0 0.0 0.00 0.00 0.00 73 1011.7
20260507163754 10 337 0.0 0.0 0.00 0.00 0.00 72 1011.7
20260507163254 10 337 0.0 0.0 0.00 0.00 0.00 72 1011.6
20260507162754 10 22 0.0 0.0 0.00 0.00 0.00 72 1011.6
20260507162254 10 22 0.0 0.0 0.00 0.00 0.00 72 1011.6
20260507161754 10 22 0.0 3.2 0.00 0.00 0.00 72 1011.7
20260507161254 10 45 1.6 1.6 0.00 0.00 0.00 72 1011.5
20260507160754 10 0 0.0 0.0 0.00 0.00 0.00 71 1011.5
20260507160254 10 0 0.0 1.6 0.00 0.00 0.00 71 1011.5
20260507155754 10 45 0.0 1.6 0.00 0.00 0.00 71 1011.5
20260507155254 10 22 0.0 6.4 0.00 0.00 0.00 71 1011.4
20260507154754 10 22 0.0 4.8 0.00 0.00 0.00 71 1011.4
20260507154254 10 22 0.0 1.6 0.00 0.00 0.00 71 1011.5
20260507153754 10 22 0.0 1.6 0.00 0.00 0.00 71 1011.5
20260507153254 10 0 0.0 3.2 0.00 0.00 0.00 70 1011.5
20260507152754 10 45 3.2 6.4 0.00 0.00 0.00 70 1011.6
20260507152254 10 22 0.0 11.3 0.00 0.00 0.00 70 1011.5
20260507151754 10 45 3.2 3.2 0.00 0.00 0.00 71 1011.5
20260507151254 10 22 0.0 3.2 0.00 0.00 0.00 71 1011.5
20260507150754 10 0 0.0 8.0 0.00 0.00 0.00 72 1011.5
20260507150254 10 0 0.0 6.4 0.00 0.00 0.00 72 1011.4
20260507145754 10 0 0.0 0.0 0.00 0.05 0.00 72 1011.4
20260507145254 10 22 0.0 6.4 0.00 0.05 0.00 72 1011.4
20260507144754 10 45 0.0 6.4 0.00 0.05 0.00 72 1011.4
20260507144254 10 0 0.0 6.4 0.00 0.05 0.00 72 1011.2
20260507143754 10 45 0.0 9.7 0.00 0.05 0.00 73 1011.2
20260507143255 10 22 0.0 0.0 0.00 0.05 0.00 74 1011.2
20260507142755 10 337 0.0 3.2 0.00 0.05 0.00 74 1011.2
20260507142254 10 22 3.2 3.2 0.00 0.05 0.00 74 1011.3
20260507141755 10 22 0.0 0.0 0.00 0.05 0.00 75 1011.1
20260507141255 10 0 0.0 0.0 0.00 0.05 0.00 74 1011.1
20260507140755 10 22 0.0 0.0 0.00 0.05 0.00 74 1011.0
20260507140255 10 22 0.0 0.0 0.00 0.05 0.00 74 1011.1
20260507135755 10 45 0.0 0.0 0.00 0.05 0.00 75 1011.1
20260507135255 10 0 0.0 0.0 0.00 0.05 0.00 75 1011.0
20260507134755 10 22 0.0 0.0 0.00 0.05 0.00 75 1011.0
20260507134255 10 337 0.0 1.6 0.00 0.05 0.00 75 1011.0
20260507133755 10 22 0.0 1.6 0.00 0.05 0.00 76 1011.0
20260507133255 10 22 0.0 3.2 0.00 0.05 0.00 76 1011.0
20260507132755 10 22 0.0 0.0 0.00 0.05 0.00 76 1010.9
20260507132255 10 22 0.0 0.0 0.00 0.05 0.00 77 1010.9
20260507131755 10 67 0.0 3.2 0.00 0.05 0.00 77 1010.9
20260507131255 10 22 3.2 3.2 0.00 0.05 0.00 78 1010.9
20260507130755 10 45 0.0 1.6 0.00 0.05 0.00 77 1010.9
20260507130255 10 45 0.0 1.6 0.00 0.05 0.00 78 1010.9
20260507125755 9 45 0.0 1.6 0.00 0.05 0.00 78 1010.7
20260507125255 9 157 0.0 3.2 0.00 0.05 0.00 78 1010.8
20260507124755 9 22 0.0 3.2 0.00 0.05 0.00 77 1010.7
20260507124255 9 45 0.0 1.6 0.00 0.05 0.00 78 1010.7
20260507123755 9 0 1.6 4.8 0.00 0.05 0.00 78 1010.6
20260507123255 9 45 1.6 4.8 0.00 0.05 0.00 78 1010.5
20260507122755 9 22 0.0 4.8 0.00 0.05 0.00 78 1010.6
20260507122255 9 45 0.0 6.4 0.00 0.05 0.00 77 1010.6
20260507121755 9 45 0.0 4.8 0.00 0.05 0.00 78 1010.5
20260507121255 9 22 0.0 3.2 0.00 0.05 0.00 78 1010.4
20260507120755 9 22 1.6 3.2 0.00 0.05 0.00 78 1010.4
20260507120255 9 22 0.0 8.0 0.00 0.05 0.00 78 1010.5
20260507115755 9 45 6.4 9.7 0.00 0.05 0.00 79 1010.4
20260507115255 9 67 4.8 4.8 0.00 0.05 0.00 80 1010.5
20260507114755 8 45 1.6 6.4 0.00 0.05 0.00 79 1010.4
20260507114255 8 22 0.0 6.4 0.00 0.05 0.00 79 1010.4
20260507113755 8 67 4.8 4.8 0.00 0.05 0.00 80 1010.4
20260507113255 8 45 3.2 4.8 0.00 0.05 0.00 79 1010.4
20260507112755 8 22 1.6 4.8 0.00 0.05 0.00 80 1010.4
20260507112255 8 22 3.2 6.4 0.00 0.05 0.00 81 1010.4
20260507111755 8 22 1.6 3.2 0.00 0.05 0.00 81 1010.3
20260507111255 8 90 0.0 4.8 0.00 0.05 0.00 81 1010.2
20260507110755 8 67 3.2 6.4 0.00 0.05 0.00 81 1010.3
20260507110255 8 22 1.6 3.2 0.00 0.05 0.00 80 1010.2
20260507105755 8 45 3.2 6.4 0.00 0.10 0.00 80 1010.3
20260507105255 8 45 3.2 6.4 0.00 0.10 0.00 80 1010.2
20260507104755 8 45 6.4 6.4 0.00 0.10 0.00 80 1010.1
20260507104255 8 22 3.2 6.4 0.00 0.10 0.00 80 1010.2
20260507103755 8 45 3.2 3.2 0.00 0.10 0.00 80 1010.2
20260507103255 8 0 3.2 8.0 0.00 0.10 0.00 79 1010.0
20260507102756 8 22 1.6 9.7 0.00 0.10 0.00 79 1010.0
20260507102255 8 22 4.8 12.9 0.00 0.10 0.00 79 1010.0
20260507101755 8 0 8.0 8.0 0.00 0.10 0.00 79 1009.9
20260507101255 8 45 4.8 9.7 0.00 0.10 0.00 80 1009.8
20260507100755 8 45 0.0 8.0 0.00 0.10 0.00 81 1009.8
20260507100255 8 45 1.6 8.0 0.00 0.10 0.00 82 1009.8
20260507095755 8 0 4.8 11.3 0.00 0.15 0.00 82 1009.7
20260507095255 8 0 4.8 8.0 0.00 0.15 0.00 82 1009.6
20260507094755 8 0 1.6 9.7 0.00 0.15 0.00 82 1009.6
20260507094255 8 0 0.0 9.7 0.00 0.15 0.00 82 1009.5
20260507093755 8 22 4.8 12.9 0.00 0.15 0.00 82 1009.4
20260507093255 8 22 6.4 8.0 0.00 0.15 0.00 83 1009.2
20260507092755 8 0 0.0 8.0 0.00 0.15 0.00 85 1009.2
20260507092255 7 0 0.0 6.4 0.00 0.15 0.00 85 1009.2
20260507091755 7 22 3.2 4.8 0.00 0.15 0.00 85 1009.2
20260507091255 7 315 3.2 6.4 0.00 0.15 0.00 85 1009.2
20260507090755 7 0 1.6 4.8 0.00 0.15 0.00 85 1009.0
20260507090255 7 0 4.8 9.7 0.00 0.15 0.00 85 1009.1
20260507085755 7 22 4.8 6.4 0.00 0.15 0.00 85 1009.2
20260507085255 7 0 3.2 11.3 0.00 0.15 0.00 86 1009.2
20260507084755 7 0 4.8 9.7 0.00 0.15 0.00 86 1009.1
20260507084255 7 22 1.6 8.0 0.00 0.15 0.00 86 1009.1
20260507083755 7 22 1.6 8.0 0.00 0.15 0.00 86 1009.0
20260507083255 7 337 1.6 6.4 0.00 0.15 0.00 86 1008.9
20260507082755 7 45 8.0 9.7 0.00 0.15 0.00 86 1008.9
20260507082255 7 45 4.8 8.0 0.00 0.15 0.00 86 1008.8
20260507081755 7 22 3.2 12.9 0.00 0.15 0.00 86 1008.8
20260507081255 7 0 3.2 11.3 0.00 0.15 0.00 87 1008.8
20260507080755 7 45 3.2 9.7 0.00 0.15 0.00 87 1008.8
20260507080255 7 0 4.8 9.7 0.00 0.15 0.00 87 1008.7
20260507075755 7 0 4.8 9.7 0.00 0.51 0.00 88 1008.8
20260507075255 7 0 3.2 9.7 0.00 0.51 0.00 88 1008.6
20260507074755 7 22 4.8 9.7 0.00 0.51 0.00 88 1008.5
20260507074255 7 0 4.8 9.7 0.00 0.51 0.00 89 1008.5
20260507073755 7 22 4.8 6.4 0.00 0.51 0.00 90 1008.5
20260507073255 7 22 3.2 9.7 0.00 0.51 0.00 90 1008.3
20260507072755 6 22 0.0 12.9 0.00 0.51 0.00 90 1008.4
20260507072255 6 45 12.9 14.5 0.00 0.51 0.00 91 1008.4
20260507071755 6 0 4.8 8.0 0.00 0.51 0.00 90 1008.2
20260507071256 6 22 0.0 8.0 0.00 0.51 0.00 91 1008.3
20260507070755 5 22 3.2 11.3 0.00 0.51 0.00 91 1008.2
20260507070256 5 22 1.6 6.4 0.00 0.51 0.00 91 1008.2
20260507065756 5 45 6.4 6.4 0.00 1.40 0.00 91 1008.3
20260507065256 5 22 4.8 9.7 0.00 1.40 0.00 91 1008.3
20260507064756 5 22 8.0 8.0 0.00 1.40 0.00 91 1008.3
20260507064256 5 67 4.8 9.7 0.00 1.40 0.00 91 1008.3
20260507063756 5 22 3.2 12.9 0.00 1.40 0.00 91 1008.3
20260507063256 5 22 1.6 6.4 0.00 1.40 0.00 92 1008.1
20260507062756 5 22 1.6 8.0 0.00 1.40 0.00 92 1008.1
20260507062256 5 0 1.6 8.0 0.00 1.40 0.00 92 1008.1
20260507061756 5 0 1.6 9.7 0.00 1.40 0.00 92 1008.0
20260507061256 5 0 3.2 9.7 0.00 1.40 0.00 92 1007.9
20260507060756 5 22 0.0 4.8 0.00 1.40 0.00 92 1007.9
20260507060256 5 22 4.8 6.4 0.00 1.40 0.00 92 1007.8
20260507055756 5 22 1.6 6.4 0.00 1.75 0.00 92 1007.7
20260507055256 5 0 0.0 6.4 0.00 1.75 0.00 92 1007.6
20260507054756 5 22 1.6 17.7 0.00 1.75 0.00 92 1007.6
20260507054256 5 0 3.2 4.8 0.00 1.75 0.00 92 1007.7
20260507053756 5 22 1.6 6.4 0.00 1.75 0.00 92 1007.6
20260507053256 5 22 0.0 3.2 0.00 1.75 0.00 92 1007.6
20260507052756 5 45 1.6 6.4 0.00 1.75 0.00 92 1007.5
20260507052256 5 337 3.2 4.8 0.00 1.75 0.00 92 1007.4
20260507051756 5 0 1.6 3.2 0.00 1.75 0.00 92 1007.5
20260507051256 5 22 1.6 8.0 0.00 1.75 0.00 92 1007.3
20260507050756 5 0 4.8 8.0 0.00 1.75 0.00 92 1007.3
20260507050256 5 45 3.2 6.4 0.00 1.75 0.00 92 1007.3
20260507045756 5 315 0.0 9.7 0.00 2.11 0.00 92 1007.2
20260507045256 5 337 0.0 4.8 0.00 2.11 0.00 92 1007.1
20260507044756 5 22 1.6 8.0 0.00 2.11 0.00 93 1007.0
20260507044256 5 45 4.8 4.8 0.00 2.11 0.00 93 1007.0
20260507043756 5 22 4.8 6.4 0.00 2.11 0.00 93 1006.9
20260507043256 5 0 3.2 8.0 0.00 2.11 0.00 93 1006.8
20260507042756 5 22 3.2 3.2 0.00 2.11 0.00 93 1006.7
20260507042256 5 22 0.0 12.9 0.00 2.11 0.00 93 1006.7
20260507041756 5 22 8.0 12.9 0.00 2.11 0.00 93 1006.6
20260507041256 5 45 4.8 8.0 0.00 2.11 0.00 93 1006.5
20260507040756 5 22 4.8 6.4 0.00 2.11 0.00 93 1006.5
20260507040256 5 22 1.6 6.4 0.00 2.11 0.00 93 1006.2
20260507035756 5 22 3.2 8.0 0.00 2.31 0.00 93 1006.2
20260507035256 5 0 1.6 12.9 0.00 2.31 0.00 93 1006.3
20260507034756 5 0 3.2 6.4 0.00 2.31 0.00 93 1006.2
20260507034256 5 337 3.2 6.4 0.00 2.31 0.00 93 1006.1
20260507033756 5 0 0.0 6.4 0.00 2.31 0.00 93 1006.0
20260507033256 5 0 3.2 8.0 0.00 2.31 0.00 93 1006.0
20260507032756 5 0 4.8 8.0 0.00 2.31 0.00 93 1006.1
20260507032256 5 0 1.6 4.8 0.00 2.31 0.00 93 1006.1
20260507031756 5 22 0.0 6.4 0.00 2.31 0.00 93 1006.1
20260507031256 5 0 1.6 8.0 0.00 2.31 0.00 93 1006.1
20260507030756 5 0 1.6 6.4 0.00 2.31 0.00 93 1006.0
20260507030256 5 0 1.6 6.4 0.00 2.31 0.00 93 1006.0
20260507025756 5 0 1.6 4.8 0.00 2.46 0.00 93 1006.0
20260507025256 5 0 3.2 6.4 0.00 2.46 0.00 93 1005.8
20260507024756 5 22 3.2 3.2 0.00 2.46 0.00 93 1005.8
20260507024256 5 22 0.0 4.8 0.00 2.46 0.00 93 1005.7
20260507023756 5 0 3.2 6.4 0.00 2.46 0.00 93 1005.7
20260507023256 5 22 3.2 4.8 0.00 2.46 0.00 93 1005.8
20260507022756 5 0 4.8 9.7 0.00 2.46 0.00 93 1005.9
20260507022256 5 0 1.6 6.4 0.00 2.46 0.00 93 1005.9
20260507021756 5 0 3.2 6.4 0.00 2.46 0.00 93 1006.0
20260507021256 5 45 3.2 4.8 0.00 2.46 0.00 93 1006.0
20260507020756 5 22 3.2 3.2 0.00 2.46 0.00 93 1006.0
20260507020256 5 0 1.6 6.4 0.00 2.46 0.00 93 1006.0
20260507015756 5 22 1.6 4.8 0.00 2.46 0.00 93 1005.9
20260507015256 5 22 3.2 4.8 0.00 2.46 0.00 93 1005.9
20260507014756 5 0 1.6 6.4 0.00 2.46 0.00 93 1005.8
20260507014256 5 315 4.8 4.8 0.00 2.46 0.00 94 1005.9
20260507013757 5 22 1.6 4.8 0.00 2.46 0.00 94 1005.8
20260507013256 5 0 3.2 3.2 0.00 2.46 0.00 94 1005.7
20260507012756 5 337 3.2 8.0 0.00 2.46 0.00 94 1005.6
20260507012256 5 0 1.6 3.2 0.00 2.46 0.00 94 1005.4
20260507011756 5 22 3.2 6.4 0.00 2.46 0.00 94 1005.6
20260507011256 5 45 0.0 4.8 0.00 2.46 0.00 94 1005.6
20260507010756 5 337 3.2 4.8 0.00 2.46 0.00 94 1005.6
20260507010256 5 45 0.0 4.8 0.00 2.46 0.00 94 1005.6
20260507005756 5 0 0.0 4.8 0.00 2.46 0.00 94 1005.6
20260507005256 5 45 0.0 6.4 0.00 2.46 0.00 94 1005.4
20260507004756 5 22 1.6 6.4 0.00 2.46 0.00 94 1005.4
20260507004256 5 22 1.6 8.0 0.00 2.46 0.00 94 1005.3
20260507003756 5 22 3.2 4.8 0.00 2.46 0.00 94 1005.2
20260507003256 5 315 3.2 6.4 0.00 2.46 0.00 94 1005.2
20260507002756 5 22 1.6 4.8 0.00 2.46 0.00 94 1005.2
20260507002256 5 45 3.2 4.8 0.00 2.46 0.00 94 1005.3
20260507001756 5 22 3.2 4.8 0.00 2.46 0.00 94 1005.3
20260507001256 5 0 1.6 8.0 0.00 2.46 0.00 94 1005.1
20260507000756 5 22 3.2 6.4 0.00 2.46 0.00 94 1005.2
20260507000258 5 0 3.2 8.0 0.00 2.46 0.00 94 1005.1
20260506235756 5 22 6.4 6.4 0.00 2.46 0.00 94 1005.0
20260506235257 5 0 4.8 8.0 0.00 2.46 0.00 94 1005.1
20260506234757 5 22 3.2 9.7 0.00 2.46 0.00 94 1005.0
20260506234257 5 0 4.8 8.0 0.00 2.46 0.00 94 1004.9
20260506233757 5 22 3.2 9.7 0.00 2.46 0.00 94 1004.9
20260506233257 5 22 6.4 6.4 0.00 2.46 0.00 94 1004.9
20260506232757 5 0 6.4 9.7 0.00 2.46 0.00 94 1004.8
20260506232257 5 22 6.4 9.7 0.00 2.46 0.00 94 1004.7
20260506231757 5 22 6.4 6.4 0.00 2.46 0.00 94 1004.8
20260506231257 5 22 6.4 8.0 0.00 2.46 0.00 94 1004.8
20260506230757 5 337 1.6 6.4 0.00 2.46 0.00 94 1004.9
20260506230257 5 22 8.0 8.0 0.00 2.46 0.00 94 1004.7
20260506225757 5 45 8.0 8.0 0.00 2.46 0.00 94 1004.8
20260506225257 5 22 6.4 6.4 0.00 2.46 0.00 94 1005.0
20260506224757 5 157 0.0 4.8 0.00 2.46 0.00 94 1005.1
20260506224257 5 0 1.6 6.4 0.00 2.46 0.00 94 1005.1
20260506223757 5 0 1.6 6.4 0.00 2.46 0.00 94 1004.9
20260506223257 5 22 0.0 4.8 0.00 2.46 0.00 94 1005.0
20260506222757 5 0 3.2 4.8 0.00 2.46 0.00 94 1005.0
20260506222257 5 22 1.6 11.3 0.00 2.46 0.00 94 1005.0
20260506221757 5 22 3.2 6.4 0.00 2.46 0.00 94 1005.0
20260506221257 5 22 6.4 6.4 0.00 2.46 0.00 94 1005.0